DECAYED

STARLINK-31655, 59257 (Decayed)

Orbit data source: Space-Track

STARLINK-31655, 59257 was a payload satellite owned by SpaceX/Seattle (US) in LEO that was launched on Tue, 19 Mar 2024 UTC via an FALCON 9 launch vehicle from the Air Force Western Test Range (AFWTR). Payload-class satellites include a variety of spacecraft equipped with specific instruments for various scientific and technological missions. These include communications satellites like Starlink; space stations such as the ISS; scientific satellites like the Hubble; Earth observation satellites from companies like Planet Labs, Umbra, and HawkEye 360; GPS; miniature CubeSats for education and research; and military/defense satellites.

Not visible in the next 10 days
Identifier
59257, 2024-050D
Orbit
Decayed
Country
Flag of USUS
Related business
Manufacturer
SpaceX/Seattle
Mission
Decayed Commercial Communications
Bus & Motor
STARLINK V2M, Unknown motor
Mass
730 kg wet, ~700 kg dry
Launch date (UTC)
2024-03-19 (2 years ago)
Launch vehicle
FALCON 9
Launch site
Air Force Western Test Range (AFWTR)
Object type
Payload
Rocket body
Debris
Shape & HBR
Box + 2 Pan, 17.7 m
Radar Cross Section
33.884 m², Large (>1 m²)

Expand to show TLE details & history
Last TLE update: 4 months ago

TLE from 4 months ago
0 STARLINK-31655
1 59257U 24050D   26038.07035823  .13160939  11955-4  34805-2 0  9995
2 59257  53.1187 260.8923 0006541 234.9520 125.0909 16.27638628106727
Epoch: 2026-02-07T01:41Z
TLE epoch observation values (Epoch: 2026-02-07T01:41:18.951Z)
Latitude
-0.00001°
Longitude
98.36417°
Altitude
202.301 km
Speed
7.785 km/s
True Right ascension
17h 23m 34s
True Declination
0° 00' 00"
Sunlit
Object was in daylight at epoch
Visualization orbit readout
Latitude
Unknown
Longitude
Unknown
Altitude
Unknown
Speed
Unknown
Apparent Right ascension
Unknown
Apparent Declination
Unknown
Sunlit
N/A
Visualization observer readout
Local Sidereal Time
21:31:54
Azimuth
Unknown
Elevation
Unknown
Doppler factor
Unknown
Orbital elements
Apogee altitude
203.469 km
Perigee altitude
194.865 km
Semi-major axis
6,577.304 km
Eccentricity
0.00065
Inclination
53.1187°
RAAN
260.8923°
Arg. of periapsis
234.952°
True anomaly
125.1522°
Mean anomaly
125.0909°
Eccentric anomaly
125.12155°
Mean motion
4.06885 °/min
Orbital period
88.48 mins
BSTAR
0.0034805
Loading maneuver chart data...
Computing Atmospheric mass density...
Loading historical data...
Loading historical data...
Loading historical data...
Loading historical data...
Loading historical data...
Loading historical data...
Loading historical data...

Documentation

Showing up to 5 results
|